[[{"header":{"parameterUnit":"m.s-1","parameterCategory":1,"la1":30.2991,"la2":30.254,"lo1":-89.0895,"lo2":-89.0444,"dy":0.0017,"dx":0.0017,"nx":28,"ny":28,"refTime":"2024-05-13T21:00:00:Z","depth":0,"parameterNumber":2,"parameterNumberName":"U-component_of_WINDS"},"data":[0,0,0,0,0,0,0,0,0,0,0,0,0,0,0,0,0,0,0,0,0,0,0,0,0,0,0,0,0,0,0,0,0,0,0,0,0,0,0,0,0,0,0,0,0,0,0,0,0,0,0,0,0,0,0,0,0,0,3.0712,3.0713,0,3.079,3.0791,3.0792,3.0775,3.0774,3.0773,3.0771,3.0848,3.0852,3.0855,0,0,0,0,0,0,0,0,0,0,0,0,0,3.0548,3.0551,3.0712,3.0713,3.0714,3.079,3.0791,3.0792,3.0776,3.0774,3.0772,3.0771,3.0847,3.0851,3.0855,0,0,0,0,0,0,0,0,0,0,0,0,0,3.0622,3.0552,3.0712,3.0715,3.0716,3.0789,3.0791,3.0792,3.0776,3.0774,3.0772,3.077,3.0846,3.0851,3.0856,3.093,0,0,3.0871,3.0873,0,0,0,0,0,0,0,0,3.0618,3.0628,3.0714,3.0715,3.0717,3.0771,3.0761,3.0838,3.0777,3.0753,3.0771,3.0769,3.0824,3.0831,3.085,3.0933,3.0937,3.0872,3.0875,3.0877,3.0878,0,0,0,0,0,0,0,3.0613,3.0624,3.0743,3.0715,3.0717,3.0712,3.072,3.0776,3.08,3.0755,3.0754,3.0764,3.0824,3.0845,3.0852,3.0938,3.0872,3.0876,3.0879,3.0881,3.1085,3.1087,0,0,0,0,0,0,3.0607,3.062,3.074,3.0745,3.0661,3.0717,3.0726,3.0756,3.0799,3.0804,3.0765,3.0763,3.0837,3.0846,3.0854,3.0944,3.0877,3.0882,3.0885,3.1083,3.1085,3.1088,0,0,0,0,0,0,3.0603,3.0617,3.0737,3.0683,3.0697,3.0722,3.0755,3.0758,3.0779,3.0807,3.0811,3.0782,3.0836,3.0847,3.0911,3.0946,3.0884,3.0889,3.108,3.1083,3.1087,3.1123,0,0,0,0,0,0,3.0598,3.0616,3.0645,3.0683,3.07,3.0794,3.0758,3.0761,3.0788,3.0785,3.0824,3.0828,3.0835,3.0904,3.0916,3.0952,3.0893,3.1077,3.1081,3.1086,3.1119,3.1128,3.1135,0,0,0,0,0,3.0593,3.0652,3.0647,3.0662,3.0738,3.0796,3.0806,3.0813,3.0791,3.082,3.0838,3.0827,3.094,3.091,3.0924,3.0962,3.1075,3.108,3.1085,3.1116,3.1126,3.1135,0,0,0,0,0,0,3.0617,3.0657,3.0652,3.0726,3.0758,3.0793,3.083,3.0824,3.0863,3.0858,3.0865,3.0874,3.094,3.0957,3.0923,3.1036,3.1004,3.1012,3.1022,3.1032,3.104,3.1035,3.0897,0,0,0,0,0,3.0632,3.0677,3.0709,3.0771,3.0787,3.0806,3.0832,3.0835,3.0868,3.0881,3.0903,3.0935,3.0978,3.1006,3.1047,3.1121,3.1129,3.1154,3.1162,3.1168,3.1176,3.1216,3.1227,3.1106,3.1106,3.1105,0,0,3.0661,3.0688,3.0716,3.0776,3.0801,3.0847,3.0817,3.0867,3.0901,3.0888,3.0951,3.0968,3.1004,3.1073,3.1105,3.109,3.1211,3.1175,3.118,3.1184,3.1223,3.1234,3.1244,3.1109,3.1109,3.1108,0,0,3.0739,3.0764,3.0818,3.0844,3.0882,3.0894,3.0907,3.0944,3.0955,3.1018,3.1009,3.1048,3.1122,3.1148,3.1171,3.1257,3.1248,3.1269,3.1311,3.1351,3.136,3.1369,3.14,3.1411,3.1276,3.1277,3.1277,0,3.077,3.084,3.0847,3.0898,3.0924,3.0915,3.097,3.0994,3.1043,3.1061,3.1044,3.1135,3.1159,3.1234,3.1255,3.1274,3.1288,3.1266,3.1358,3.1367,3.1375,3.1405,3.1416,3.1279,3.1279,3.1278,3.1278,0,3.0877,3.0925,3.0964,3.1013,3.1044,3.1096,3.111,3.114,3.114,3.1153,3.1216,3.1244,3.129,3.1308,3.1308,3.1383,3.1373,3.1357,3.1325,3.1389,3.1417,3.1428,3.1282,3.1282,3.1281,3.128,0,0,3.0973,3.1025,3.1039,3.1061,3.1102,3.1139,3.1191,3.1236,3.1262,3.1296,3.1339,3.14,3.1386,3.1412,3.1414,3.1449,3.1515,3.1428,3.1429,3.1444,3.1599,3.1611,3.1624,3.1509,3.1511,3.1513,3.1596,0,3.1055,3.1147,3.1154,3.1237,3.1281,3.1272,3.1317,3.1346,3.136,3.1399,3.1413,3.1457,3.1434,3.145,3.1483,3.15,3.1546,3.1494,3.1549,3.1551,3.1541,3.1639,3.1653,3.173,3.1607,3.1609,3.161,0,3.1163,3.1201,3.1288,3.1323,3.1342,3.1382,3.1424,3.1461,3.1494,3.1501,3.153,3.1528,3.1579,3.1545,3.1616,3.158,3.1603,3.1614,3.1617,3.1623,3.1585,3.1648,3.1755,3.1767,3.1627,3.1626,3.1625,0,3.1225,3.1298,3.1359,3.1378,3.142,3.1448,3.1467,3.1498,3.1525,3.1561,3.1578,3.1619,3.1642,3.1674,3.1683,3.1657,3.1753,3.172,3.1761,3.176,3.1782,3.1781,3.1894,3.1796,3.1795,3.1795,3.1795,0,3.1316,3.137,3.1388,3.1426,3.1485,3.1492,3.1551,3.1567,3.1595,3.1635,3.1629,3.1667,3.1676,3.1715,3.1721,3.1779,3.1789,3.1796,3.1797,3.1797,3.1796,3.1813,3.1808,3.1798,3.1798,3.1797,3.1796,0,3.1397,3.1411,3.1477,3.1511,3.1521,3.1563,3.1592,3.1628,3.164,3.1691,3.1703,3.1722,3.1768,3.1779,3.1834,3.1838,3.1906,3.1902,3.1896,3.1896,3.1936,3.1932,3.2065,3.2082,3.1971,3.1972,3.1973,0,3.1454,3.1495,3.1534,3.1561,3.1581,3.1624,3.1651,3.1659,3.1688,3.1728,3.1759,3.1804,3.184,3.1913,3.1931,3.1972,3.1969,3.2013,3.1976,3.1974,3.1971,3.1968,3.1972,3.202,3.2021,3.2022,3.2023,0,3.1555,3.156,3.16,3.1643,3.1676,3.1709,3.1742,3.1764,3.1776,3.1808,3.1855,3.1883,3.1938,3.1983,3.2024,3.2042,3.2035,3.2035,3.2046,3.2047,3.2042,3.2046,3.1916,3.2032,3.2031,3.203,3.203,3.203,3.1626,3.1662,3.1695,3.174,3.1765,3.1795,3.183,3.1847,3.1887,3.1933,3.1934,3.1985,3.2016,3.2071,3.2091,3.213,3.2117,3.2133,3.2138,3.2142,3.2146,3.2035,3.2137,3.2137,3.2137,3.2137,3.2136,0,3.1727,3.1748,3.1789,3.1834,3.1869,3.1859,3.1894,3.1924,3.1969,3.1998,3.2034,3.2088,3.2131,3.2152,3.2194,3.2221,3.2219,3.2232,3.2231,3.2235,3.2155,3.2141,3.2233,3.2233,3.2233,3.2233,3.2233,3.2233,3.1784,3.1845,3.1853,3.1926,3.1945,3.1996,3.2017,3.2044,3.2067,3.2128,3.2164,3.2177,3.2203,3.2247,3.2285,3.229,3.2306,3.2321,3.2325,3.225,3.224,3.2231,3.2218,3.2325,3.2325,3.2401,3.2402,3.2402]},{"header":{"parameterUnit":"m.s-1","parameterCategory":1,"la1":30.2991,"la2":30.254,"lo1":-89.0895,"lo2":-89.0444,"dy":0.0017,"dx":0.0017,"nx":28,"ny":28,"refTime":"2024-05-13T21:00:00:Z","depth":0,"parameterNumber":3,"parameterNumberName":"V-component_of_WINDS"},"data":[0,0,0,0,0,0,0,0,0,0,0,0,0,0,0,0,0,0,0,0,0,0,0,0,0,0,0,0,0,0,0,0,0,0,0,0,0,0,0,0,0,0,0,0,0,0,0,0,0,0,0,0,0,0,0,0,0,0,-0.6588,-0.6588,0,-0.657,-0.657,-0.657,-0.6558,-0.6558,-0.6557,-0.6557,-0.654,-0.654,-0.654,0,0,0,0,0,0,0,0,0,0,0,0,0,-0.6614,-0.6614,-0.6588,-0.6588,-0.6588,-0.657,-0.657,-0.657,-0.6558,-0.6558,-0.6557,-0.6557,-0.6541,-0.654,-0.654,0,0,0,0,0,0,0,0,0,0,0,0,0,-0.66,-0.6614,-0.6588,-0.658,-0.6579,-0.657,-0.657,-0.657,-0.6558,-0.6558,-0.6557,-0.6557,-0.6541,-0.654,-0.654,-0.6539,0,0,-0.6538,-0.6538,0,0,0,0,0,0,0,0,-0.6601,-0.6599,-0.6581,-0.658,-0.6579,-0.6566,-0.6573,-0.6559,-0.6558,-0.6566,-0.6557,-0.6557,-0.6549,-0.6548,-0.6545,-0.6538,-0.6537,-0.6538,-0.6538,-0.6537,-0.6537,0,0,0,0,0,0,0,-0.6602,-0.66,-0.6581,-0.6581,-0.658,-0.6577,-0.6575,-0.657,-0.6558,-0.6565,-0.6564,-0.6562,-0.6549,-0.6545,-0.6544,-0.6537,-0.6538,-0.6537,-0.6537,-0.6537,-0.6529,-0.653,0,0,0,0,0,0,-0.6604,-0.6601,-0.6582,-0.6581,-0.659,-0.6577,-0.6575,-0.657,-0.6558,-0.6556,-0.6562,-0.6562,-0.6546,-0.6545,-0.6544,-0.6542,-0.6537,-0.6537,-0.6536,-0.6529,-0.6529,-0.653,0,0,0,0,0,0,-0.6605,-0.6603,-0.6582,-0.6591,-0.6588,-0.6577,-0.6572,-0.657,-0.6567,-0.6556,-0.6554,-0.6561,-0.6546,-0.6545,-0.654,-0.6542,-0.6537,-0.6536,-0.6529,-0.6529,-0.653,-0.654,0,0,0,0,0,0,-0.6606,-0.6603,-0.6602,-0.6591,-0.6587,-0.6579,-0.6572,-0.657,-0.6566,-0.6565,-0.6555,-0.6553,-0.6546,-0.6541,-0.654,-0.6541,-0.6536,-0.6529,-0.6529,-0.6529,-0.6539,-0.654,-0.6541,0,0,0,0,0,-0.6606,-0.6606,-0.6602,-0.66,-0.6586,-0.6579,-0.6577,-0.6569,-0.6566,-0.6565,-0.6559,-0.6553,-0.6542,-0.6541,-0.6539,-0.654,-0.6529,-0.6529,-0.6529,-0.6539,-0.654,-0.6541,0,0,0,0,0,0,-0.6618,-0.6604,-0.66,-0.6595,-0.6588,-0.6577,-0.6576,-0.657,-0.6564,-0.6564,-0.6554,-0.6552,-0.6549,-0.6544,-0.6543,-0.6539,-0.6535,-0.6535,-0.6542,-0.6543,-0.6544,-0.6546,-0.6535,0,0,0,0,0,-0.662,-0.6615,-0.6603,-0.66,-0.6597,-0.6587,-0.6584,-0.6578,-0.657,-0.6568,-0.6561,-0.6554,-0.6549,-0.6546,-0.6541,-0.6538,-0.6536,-0.6538,-0.6539,-0.654,-0.654,-0.6539,-0.654,-0.6531,-0.6531,-0.6531,0,0,-0.6624,-0.6616,-0.6613,-0.6603,-0.6596,-0.6592,-0.6585,-0.658,-0.6577,-0.6567,-0.6563,-0.6557,-0.6549,-0.6546,-0.6544,-0.6542,-0.6542,-0.654,-0.6541,-0.6541,-0.654,-0.6541,-0.6541,-0.6531,-0.6531,-0.6531,0,0,-0.663,-0.6623,-0.662,-0.6614,-0.6604,-0.6598,-0.6597,-0.6587,-0.6582,-0.6578,-0.657,-0.6567,-0.6558,-0.6553,-0.6549,-0.6553,-0.6548,-0.6551,-0.6557,-0.6556,-0.6556,-0.6557,-0.6559,-0.656,-0.6552,-0.6552,-0.6552,0,-0.6636,-0.6628,-0.6619,-0.6615,-0.6611,-0.6601,-0.6598,-0.6593,-0.6583,-0.6581,-0.6578,-0.6567,-0.6561,-0.6557,-0.6558,-0.6555,-0.6554,-0.6553,-0.6557,-0.6558,-0.6558,-0.656,-0.656,-0.6552,-0.6552,-0.6552,-0.6552,0,-0.6637,-0.6632,-0.6631,-0.6621,-0.6616,-0.6613,-0.6604,-0.66,-0.6595,-0.6589,-0.6585,-0.6577,-0.657,-0.6569,-0.6564,-0.6564,-0.6563,-0.6559,-0.6554,-0.656,-0.6561,-0.6562,-0.6553,-0.6553,-0.6553,-0.6552,0,0,-0.665,-0.6634,-0.6634,-0.663,-0.6619,-0.6615,-0.6611,-0.6604,-0.6602,-0.6595,-0.6593,-0.6586,-0.6582,-0.6578,-0.6572,-0.6571,-0.6575,-0.6567,-0.6567,-0.6569,-0.6576,-0.6579,-0.658,-0.6571,-0.6572,-0.6572,-0.6576,0,-0.6654,-0.6646,-0.6638,-0.6634,-0.6629,-0.662,-0.6617,-0.6611,-0.6605,-0.6601,-0.6595,-0.659,-0.6585,-0.6582,-0.6581,-0.6575,-0.6576,-0.6574,-0.657,-0.6569,-0.6572,-0.6581,-0.6584,-0.6589,-0.6577,-0.6577,-0.6577,0,-0.6657,-0.6651,-0.6646,-0.6636,-0.6634,-0.6631,-0.6624,-0.662,-0.6613,-0.6609,-0.6604,-0.6598,-0.6594,-0.659,-0.6586,-0.6584,-0.6582,-0.6579,-0.6579,-0.6578,-0.6574,-0.6581,-0.659,-0.6591,-0.6578,-0.6578,-0.6578,0,-0.6667,-0.6657,-0.6653,-0.665,-0.6638,-0.6636,-0.6631,-0.6624,-0.662,-0.6614,-0.6612,-0.6606,-0.6603,-0.6599,-0.6591,-0.6589,-0.6588,-0.6583,-0.6585,-0.6585,-0.6585,-0.6586,-0.6595,-0.6583,-0.6583,-0.6583,-0.6583,0,-0.6673,-0.6671,-0.6658,-0.6655,-0.6653,-0.6643,-0.6641,-0.6635,-0.6629,-0.6625,-0.6617,-0.6615,-0.6605,-0.6601,-0.6595,-0.6593,-0.6591,-0.6589,-0.6587,-0.6589,-0.659,-0.6588,-0.6588,-0.6583,-0.6583,-0.6583,-0.6583,0,-0.6684,-0.6675,-0.667,-0.6659,-0.6656,-0.6655,-0.6646,-0.6643,-0.6637,-0.6633,-0.6632,-0.6622,-0.6618,-0.661,-0.6603,-0.6599,-0.6598,-0.6595,-0.66,-0.66,-0.6602,-0.6602,-0.6611,-0.6612,-0.6599,-0.6599,-0.66,0,-0.6688,-0.6686,-0.6675,-0.6672,-0.6667,-0.6662,-0.6659,-0.665,-0.6646,-0.6638,-0.6637,-0.6631,-0.6626,-0.662,-0.6612,-0.6607,-0.6605,-0.6608,-0.6604,-0.6606,-0.6605,-0.6606,-0.6606,-0.6609,-0.6609,-0.661,-0.661,0,-0.6697,-0.6693,-0.6687,-0.6681,-0.6676,-0.6671,-0.6665,-0.6663,-0.6653,-0.6649,-0.6644,-0.6641,-0.6633,-0.6628,-0.6622,-0.6618,-0.6612,-0.6611,-0.6611,-0.6614,-0.6617,-0.6616,-0.6604,-0.6611,-0.6611,-0.6611,-0.6611,-0.6611,-0.6705,-0.6703,-0.6695,-0.6689,-0.6684,-0.6678,-0.6676,-0.6669,-0.6665,-0.6658,-0.6653,-0.6648,-0.6641,-0.6633,-0.6628,-0.6625,-0.6623,-0.6623,-0.6623,-0.6624,-0.6625,-0.6617,-0.6624,-0.6624,-0.6624,-0.6624,-0.6624,0,-0.6714,-0.6708,-0.6703,-0.6695,-0.6691,-0.6685,-0.6679,-0.6676,-0.6672,-0.6666,-0.6661,-0.6655,-0.6651,-0.6643,-0.6638,-0.6637,-0.6634,-0.6636,-0.6636,-0.6635,-0.6627,-0.6627,-0.6638,-0.6638,-0.6638,-0.6638,-0.6638,-0.6638,-0.6718,-0.6715,-0.6709,-0.6703,-0.6698,-0.6693,-0.6689,-0.6685,-0.668,-0.6674,-0.667,-0.6665,-0.6658,-0.6652,-0.6648,-0.6646,-0.6645,-0.6647,-0.6644,-0.6637,-0.6636,-0.6634,-0.6635,-0.6647,-0.6647,-0.6653,-0.6653,-0.6653]}]]